"TOA5","AWS1","CR1000","7964","CR1000.Std.14","CPU:AWS1_114.CR1","64363","TBL110"
"TIMESTAMP","RECORD","Wind_spd_WVc(1)","Wind_spd_WVc(2)","Air_Temp_Avg","Humidity_Avg","SW_upper_Wm2_Avg","Rain_Tot","Press_Avg","Issui_Tot","Depth_cm","SR50A_Raw","Quality","Ground_Temp_Avg(1)","Ground_Temp_Avg(2)","SW_lower_Wm2_Avg","Albedo_Avg","SWC_per(1)","SWC_per(2)","Period(1)","Period(2)"
"TS","RN","","","","","","","","","","","","","","","","","","",""
"","","WVc","WVc","Avg","Avg","Avg","Tot","Avg","Tot","Smp","Smp","Smp","Avg","Avg","Avg","Avg","Smp","Smp","Smp","Smp"
"2017-11-09 00:00:00",313693,0.731,342.2,6.937,88.7,0.2162395,0,865.2115,0,11,3.032,216,7.623,7.981,1.038689,1.671,51.1,58.26,33.57,35.28
"2017-11-09 00:10:00",313694,1.384,316.5,7.026,88.2,0.1690599,0,865.1937,0,12.6,3.015,243,7.609,8.01,1.194113,1.012,51.16,58.26,33.58,35.28
"2017-11-09 00:20:00",313695,0.711,323.4,6.931,86.9,0.01179488,0,865.1453,0,12.24,3.02,241,7.609,8.03,1.148623,0.121,51.16,58.32,33.58,35.29
"2017-11-09 00:30:00",313696,0.836,322.4,6.881,85.2,0.6015389,0.5,865.1542,0,12.92,3.013,246,7.583,8.03,1.49738,2.044,51.16,58.26,33.58,35.28
"2017-11-09 00:40:00",313697,0.605,319.9,6.899,85.1,0.5976073,0,865.1467,0,12.77,3.015,243,7.549,8.03,1.304048,2.401,51.16,58.32,33.58,35.29
"2017-11-09 00:50:00",313698,0.755,332.1,6.853,84.3,0.99077,0,865.1444,0,13.37,3.01,244,7.536,8.03,1.353329,1.503,51.21,58.26,33.6,35.28
"2017-11-09 01:00:00",313699,0.658,349.2,6.582,86.1,0.916069,0,865.1397,0,13.18,3.013,249,7.523,8.03,1.125878,1.328,51.21,58.26,33.6,35.28
"2017-11-09 01:10:00",313700,0.418,306.1,6.321,90.4,0.2201711,0,865.1896,0,13.38,3.012,253,7.52,8.03,0.6216972,0.678,51.21,58.32,33.6,35.29
"2017-11-09 01:20:00",313701,0.555,296.7,6.224,92.1,0.1729916,0,865.3672,0,12.51,3.021,234,7.516,8.03,0.6330697,0.94,51.21,58.32,33.6,35.29
"2017-11-09 01:30:00",313702,0.842,287.7,6.075,90.2,0.2201711,0,865.4384,0,13.47,3.012,248,7.516,8.03,0.6861414,0.988,51.27,58.32,33.61,35.29
"2017-11-09 01:40:00",313703,0.735,307.1,5.953,87.6,0.05111115,0,865.6223,0,-24.69,3.391,193,7.516,8.03,0.9098007,0.546,51.27,58.32,33.61,35.29
"2017-11-09 01:50:00",313704,1.187,294.7,5.73,86.3,0,0,865.7203,0,-25.79,3.403,175,7.516,8.03,1.038689,0,51.27,58.32,33.61,35.29
"2017-11-09 02:00:00",313705,1.203,327.5,5.537,84.8,0.1140172,0,865.7946,0,-25.81,3.405,194,7.517,8.03,1.22444,0.916,51.33,58.32,33.62,35.29
"2017-11-09 02:10:00",313706,0.623,293.8,5.151,84.9,0,0,865.7033,0,-25.77,3.407,188,7.532,8.03,1.027317,0,51.33,58.32,33.62,35.29
"2017-11-09 02:20:00",313707,0.831,315.5,4.775,82.6,0,0,865.4998,0,-25.74,3.408,179,7.565,8.03,1.26993,0,51.33,58.32,33.62,35.29
"2017-11-09 02:30:00",313708,0.866,316.3,4.796,71.82,0,0,865.4764,0,-25.58,3.407,180,7.582,8.03,2.426135,0,51.38,58.38,33.64,35.31
"2017-11-09 02:40:00",313709,0.83,291.9,4.546,76.9,0.3813678,0,865.4746,0,14.83,3.007,463,7.565,8.03,2.054633,1.335,51.33,58.38,33.62,35.31
"2017-11-09 02:50:00",313710,1.145,284,4.734,74.84,2.256754,0,865.4735,0,13.47,3.019,264,7.492,8.03,2.217639,0.989,51.38,58.38,33.64,35.31
"2017-11-09 03:00:00",313711,1.473,290.6,4.791,72.86,2.288207,0,865.4899,0,13.52,3.019,253,7.496,8.03,1.732412,0.766,51.33,58.38,33.62,35.31
"2017-11-09 03:10:00",313712,1.448,288.7,4.542,74.64,1.092992,0,865.5557,0,13.26,3.023,244,7.445,8.03,1.197904,1.17,51.38,58.38,33.64,35.31
"2017-11-09 03:20:00",313713,1.359,294.9,4.162,79.61,0.1611967,0,865.7243,0,12.34,3.035,224,7.431,8.03,0.7960756,1.012,51.38,58.38,33.64,35.31
"2017-11-09 03:30:00",313714,1.078,294.2,3.564,85.7,0,0,865.7285,0,14.28,3.019,349,7.432,8.03,0.3298028,0,51.38,58.44,33.64,35.32
"2017-11-09 03:40:00",313715,0.858,290.5,3.225,90.1,0,0,865.7285,0,13.97,3.023,282,7.458,8.03,0.4359462,0,51.38,58.38,33.64,35.31
"2017-11-09 03:50:00",313716,1.069,309.7,3.214,89.6,0,0,865.6379,0,-25.46,3.414,179,7.496,8.03,0.5345079,0,51.44,58.44,33.65,35.32
"2017-11-09 04:00:00",313717,0.504,210.3,3.24,92.1,0,0,865.6906,0,-25.43,3.414,192,7.514,8.03,0.5989522,0,51.38,58.44,33.64,35.32
"2017-11-09 04:10:00",313718,0.384,218.6,3.25,92.9,0,0,865.7285,0,-25.46,3.414,192,7.514,8.03,0.5041813,0,51.44,58.44,33.65,35.32
"2017-11-09 04:20:00",313719,0.895,195.4,3.126,93.6,0,0,865.7243,0,-25.3,3.414,187,7.512,8.04,0.458695,0,51.38,58.44,33.64,35.32
"2017-11-09 04:30:00",313720,0.745,235.8,3.032,93.4,0,0,865.7411,0,-25.35,3.415,192,7.499,8.05,0.6065659,0,51.44,58.44,33.65,35.32
"2017-11-09 04:40:00",313721,0.762,238.2,3.089,92.1,0,0,865.9013,0,13.41,3.029,302,7.442,8.05,0.8795147,0,51.44,58.44,33.65,35.32
"2017-11-09 04:50:00",313722,0.927,249.9,2.98,92.7,0,0,865.9814,0,-25.5,3.417,191,7.427,8.04,0.591391,0,51.38,58.44,33.64,35.32
"2017-11-09 05:00:00",313723,0.81,191.1,2.806,94.3,0,0,866.0847,0,-25.43,3.417,192,7.41,8.06,0.3601599,0,51.44,58.5,33.65,35.33
"2017-11-09 05:10:00",313724,1.236,262.4,2.801,93.9,0,0,866.1583,0,13.64,3.028,293,7.42,8.07,0.2388555,0,51.44,58.5,33.65,35.33
"2017-11-09 05:20:00",313725,1.245,250,2.738,92.1,0,0,866.1752,0,-25.79,3.421,170,7.462,8.08,0.3564021,0,51.49,58.5,33.66,35.33
"2017-11-09 05:30:00",313726,1.29,261.9,2.594,91.4,0,0,866.2637,0,-25.16,3.415,174,7.48,8.09,0.7241922,0,51.49,58.5,33.66,35.33
"2017-11-09 05:40:00",313727,0.98,235.6,2.536,89.6,0,0,866.2388,0,-25.47,3.419,170,7.497,8.1,0.9744996,0,51.44,58.5,33.65,35.33
"2017-11-09 05:50:00",313728,0.755,258.5,2.484,88.7,0,0,866.2471,0,-25.47,3.42,169,7.462,8.12,1.202068,0,51.49,58.5,33.66,35.33
"2017-11-09 06:00:00",313729,0.908,267.9,2.406,89.7,0,0,866.2675,0,13.4,3.032,241,7.367,8.12,1.183132,0,51.44,58.5,33.65,35.33
"2017-11-09 06:10:00",313730,0.786,271.3,2.49,88.7,0,0,866.2885,0,-25.58,3.42,175,7.393,8.12,1.004912,0,51.44,58.56,33.65,35.35
"2017-11-09 06:20:00",313731,0.87,268.2,2.634,85.3,0.08652529,0,866.2896,0,-25.26,3.416,171,7.425,8.13,1.357582,0.731,51.44,58.56,33.65,35.35
"2017-11-09 06:30:00",313732,0.803,271.9,2.526,86.3,1.057968,0,866.4626,0,-25.52,3.42,174,7.432,8.13,1.247611,1.272,51.44,58.56,33.65,35.35
"2017-11-09 06:40:00",313733,1.463,301.2,2.365,89.6,1.962551,0,866.6685,0,12.09,3.047,272,7.432,8.13,0.902527,0.534,51.44,58.56,33.65,35.35
"2017-11-09 06:50:00",313734,1.579,286,2.134,92.8,2.249658,0,866.9321,0,-24.88,3.416,224,7.432,8.13,0.5005612,0.352,51.44,58.5,33.65,35.33
"2017-11-09 07:00:00",313735,1.776,311.4,2.046,94.2,6.564125,0,867.0462,0,12.94,3.039,250,7.432,8.13,0.9556168,0.146,51.49,58.5,33.66,35.33
"2017-11-09 07:10:00",313736,1.536,284.5,2.089,93.9,10.88646,0,867.2372,0,13.49,3.034,278,7.432,8.13,1.414465,0.132,51.49,58.56,33.66,35.35
"2017-11-09 07:20:00",313737,1.885,286.1,2.029,94.3,14.33174,0,867.3319,0,11.38,3.055,220,7.423,8.13,1.877105,0.131,51.44,58.56,33.65,35.35
"2017-11-09 07:30:00",313738,1.388,302.9,2.129,94.1,16.49487,0,867.481,0,-26.97,3.436,191,7.349,8.13,2.08188,0.125,51.49,58.56,33.66,35.35
"2017-11-09 07:40:00",313739,1.201,271.7,2.161,94.2,12.49111,0,867.5832,0,12.31,3.045,373,7.319,8.13,1.607863,0.128,51.49,58.61,33.66,35.36
"2017-11-09 07:50:00",313740,1.888,306.3,2.078,93.7,35.02702,0,867.618,0,-24.3,3.41,185,7.34,8.13,4.633983,0.132,51.49,58.61,33.66,35.36
"2017-11-09 08:00:00",313741,1.165,284.5,2.072,92.6,57.58653,0,867.7432,0,13.59,3.032,474,7.345,8.13,7.576676,0.131,51.49,58.56,33.66,35.35
"2017-11-09 08:10:00",313742,1.012,300.1,2.121,89.8,62.06225,0,868.0125,0,-25.01,3.417,189,7.345,8.13,8.391985,0.131,51.55,58.61,33.68,35.36
"2017-11-09 08:20:00",313743,1.299,291,2.297,88.6,107.1341,0,868.0511,0,-26.05,3.426,202,7.345,8.13,18.33874,0.17,51.55,58.56,33.68,35.35
"2017-11-09 08:30:00",313744,1.532,282.4,2.284,85.2,102.5089,0,868.1761,0,13.34,3.034,241,7.345,8.13,17.4931,0.171,51.49,58.56,33.66,35.35
"2017-11-09 08:40:00",313745,0.946,255.8,2.374,84.3,99.46479,0,868.254,0,13.95,3.027,324,7.345,8.13,20.14759,0.205,51.55,58.61,33.68,35.36
"2017-11-09 08:50:00",313746,0.884,191.6,2.62,81.8,110.5518,0,868.3,0,14.06,3.024,277,7.345,8.13,25.54379,0.236,51.55,58.61,33.68,35.36
"2017-11-09 09:00:00",313747,0.745,207.9,2.963,81,80.55507,0,868.0715,0,14.05,3.021,256,7.344,8.13,19.84801,0.247,51.49,58.61,33.66,35.36
"2017-11-09 09:10:00",313748,0.927,198,3.455,79.21,87.99231,0,868.17,0,13.48,3.026,254,7.345,8.13,22.72624,0.261,51.49,58.61,33.66,35.36
"2017-11-09 09:20:00",313749,1.007,275.2,3.433,76.92,95.07952,0,868.2899,0,13.53,3.026,248,7.345,8.12,23.84112,0.249,51.55,58.61,33.68,35.36
"2017-11-09 09:30:00",313750,0.829,222.2,3.494,74.32,113.002,0,868.4115,0,13.58,3.025,255,7.342,8.09,23.53773,0.203,51.55,58.61,33.68,35.36
"2017-11-09 09:40:00",313751,1.152,276.3,3.615,73.56,171.4005,0,868.3797,0,13.01,3.03,242,7.293,8.04,30.97373,0.18,51.55,58.61,33.68,35.36
"2017-11-09 09:50:00",313752,0.784,280.1,3.678,73.52,169.2481,0,868.442,0,13.98,3.018,261,7.275,8.04,30.95836,0.181,51.55,58.61,33.68,35.36
"2017-11-09 10:00:00",313753,0.373,225.7,4.169,74.09,120.2422,0,868.3969,0,13.32,3.024,246,7.24,8.02,18.89117,0.148,51.6,58.67,33.69,35.37
"2017-11-09 10:10:00",313754,0.603,152.1,4.491,72.81,166.3132,0,868.5016,0,13.95,3.017,280,7.211,8.01,37.23539,0.22,51.55,58.67,33.68,35.37
"2017-11-09 10:20:00",313755,0.473,228.6,4.413,70.4,184.8608,0,868.5119,0,12.95,3.026,270,7.209,8.01,33.01265,0.172,51.55,58.67,33.68,35.37
"2017-11-09 10:30:00",313756,0.711,251.8,4.505,69.29,265.9449,0,868.5119,0,-24.71,3.397,189,7.277,8.04,60.66231,0.228,51.6,58.67,33.69,35.37
"2017-11-09 10:40:00",313757,0.336,289.9,4.811,70.57,261.1248,0,868.5667,0,13.04,3.024,249,7.3,8.04,39.84198,0.151,51.55,58.67,33.68,35.37
"2017-11-09 10:50:00",313758,0.695,272.7,4.28,73.15,193.2517,0,868.6404,0,-24.33,3.397,184,7.266,8.07,33.88257,0.17,51.55,58.67,33.68,35.37
"2017-11-09 11:00:00",313759,0.741,328.1,4.327,72.01,258.9608,0,868.6334,0,13.15,3.025,267,7.256,8.08,48.73883,0.182,51.55,58.67,33.68,35.37
"2017-11-09 11:10:00",313760,0.904,301.3,4.106,71.64,358.4899,0,868.5974,0,13.84,3.018,394,7.255,8.08,51.38861,0.143,51.55,58.67,33.68,35.37
"2017-11-09 11:20:00",313761,0.471,261.2,4.59,69.64,430.4348,0,868.4446,0,-25.72,3.407,196,7.284,8.08,62.44648,0.145,51.55,58.67,33.68,35.37
"2017-11-09 11:30:00",313762,1.328,285.2,4.566,67.73,256.3973,0,868.4275,0,-0.95,3.162,196,7.329,8.08,58.57225,0.213,51.55,58.67,33.68,35.37
"2017-11-09 11:40:00",313763,0.909,241.4,4.781,67.15,501.4478,0,868.3604,0,11.79,3.035,230,7.358,8.07,65.99471,0.134,51.6,58.73,33.69,35.39
"2017-11-09 11:50:00",313764,0.672,296.9,4.94,64.75,577.2064,0,868.2097,0,12.55,3.027,262,7.373,8.08,72.91678,0.122,51.55,58.73,33.68,35.39
"2017-11-09 12:00:00",313765,0.536,265.7,4.962,66.43,368.6728,0,868.1592,0,12.95,3.023,251,7.396,8.07,49.52351,0.118,51.55,58.73,33.68,35.39
"2017-11-09 12:10:00",313766,0.93,339.5,5.085,68.17,451.8649,0,868.163,0,-25.13,3.4,210,7.393,8.07,64.63573,0.13,51.6,58.73,33.69,35.39
"2017-11-09 12:20:00",313767,0.793,326.7,4.808,66.27,235.3041,0,868.167,0,13.46,3.018,272,7.422,8.04,33.09277,0.138,51.55,58.73,33.68,35.39
"2017-11-09 12:30:00",313768,0.804,327,4.893,66.24,187.384,0,868.1649,0,12.81,3.026,274,7.371,8.01,26.96862,0.143,51.55,58.73,33.68,35.39
"2017-11-09 12:40:00",313769,0.947,286.3,4.565,65.82,199.0393,0,868.0491,0,12.9,3.027,253,7.346,7.992,29.48349,0.148,51.6,58.73,33.69,35.39
"2017-11-09 12:50:00",313770,1.585,288.2,4.331,64.42,548.7739,0,868.0007,0,-35.26,3.504,234,7.345,7.994,68.61539,0.127,51.55,58.73,33.68,35.39
"2017-11-09 13:00:00",313771,0.955,213.9,4.961,64.16,588.0322,0,867.9396,0,10.21,3.051,341,7.335,8.01,68.12991,0.114,51.6,58.73,33.69,35.39
"2017-11-09 13:10:00",313772,1.03,253.2,4.858,63.98,411.2423,0,867.9248,0,12.38,3.031,336,7.362,8,47.00827,0.109,51.55,58.73,33.68,35.39
"2017-11-09 13:20:00",313773,1.045,247.2,4.958,65.24,435.2049,0,867.908,0,7.648,3.077,302,7.429,7.994,48.53784,0.112,51.55,58.73,33.68,35.39
"2017-11-09 13:30:00",313774,1.207,286.6,4.408,67.69,391.9821,0,867.7985,0,9.86,3.056,271,7.456,7.994,30.24079,0.081,51.55,58.73,33.68,35.39
"2017-11-09 13:40:00",313775,0.853,336.1,4.754,66.74,480.015,0,867.6973,0,10.99,3.042,317,7.455,7.988,40.91961,0.085,51.55,58.79,33.68,35.4
"2017-11-09 13:50:00",313776,0.756,161.9,5.222,65.52,344.9222,0,867.6636,0,10.01,3.05,301,7.427,8.02,26.73904,0.09,51.55,58.79,33.68,35.4
"2017-11-09 14:00:00",313777,0.93,177,5.111,64.77,120.3139,0,867.8111,0,6.669,3.086,264,7.425,7.989,17.86012,0.143,51.55,58.79,33.68,35.4
"2017-11-09 14:10:00",313778,0.559,176,5.113,65.51,141.0187,0,867.9122,0,10.44,3.047,349,7.425,7.986,21.61177,0.153,51.55,58.79,33.68,35.4
"2017-11-09 14:20:00",313779,0.482,176.6,5.055,65.1,83.54218,0,867.9143,0,4.022,3.112,232,7.425,7.986,10.6903,0.125,51.55,58.79,33.68,35.4
"2017-11-09 14:30:00",313780,0.607,293.3,4.439,65.56,83.11423,0,868.1017,0,5.242,3.103,247,7.426,7.993,10.84953,0.128,51.55,58.79,33.68,35.4
"2017-11-09 14:40:00",313781,0.413,164.2,4.682,67.47,82.53479,0,868.1165,0,4.302,3.109,253,7.459,8.01,12.10099,0.146,51.55,58.79,33.68,35.4
"2017-11-09 14:50:00",313782,0.691,309.8,4.633,63.29,68.94767,0,868.1649,0,5.843,3.096,264,7.496,8.04,9.574383,0.139,51.6,58.79,33.69,35.4
"2017-11-09 15:00:00",313783,0.476,273.4,4.555,64.2,61.44354,0,868.2383,0,3.992,3.115,248,7.533,8.03,7.964045,0.129,51.55,58.73,33.68,35.39
"2017-11-09 15:10:00",313784,0.884,281.9,4.265,63.81,50.67744,0,868.2414,0,11.84,3.039,304,7.549,8.02,6.031072,0.117,51.55,58.79,33.68,35.4
"2017-11-09 15:20:00",313785,1.437,289,3.968,63.42,37.09462,0,868.4294,0,-25.93,3.415,188,7.556,7.974,4.188844,0.113,51.55,58.79,33.68,35.4
"2017-11-09 15:30:00",313786,1.043,266,3.868,66.11,42.65019,0,868.4876,0,-27.29,3.429,188,7.561,7.949,5.417092,0.124,51.55,58.79,33.68,35.4
"2017-11-09 15:40:00",313787,1.216,292.3,3.928,66.2,27.15574,0,868.499,0,-27.67,3.432,211,7.57,7.967,3.150184,0.116,51.55,58.79,33.68,35.4
"2017-11-09 15:50:00",313788,1.126,280.6,3.957,62.78,22.76412,0,868.4944,0,-27.34,3.429,194,7.584,8,2.638422,0.116,51.55,58.79,33.68,35.4
"2017-11-09 16:00:00",313789,0.865,298.3,3.782,63.07,19.42224,0,868.4738,0,-26.73,3.424,204,7.596,8.03,2.168358,0.112,51.55,58.79,33.68,35.4
"2017-11-09 16:10:00",313790,0.659,288.6,3.696,65.31,15.9742,0,868.4929,0,-27.11,3.428,196,7.596,8.03,1.906791,0.12,51.6,58.79,33.69,35.4
"2017-11-09 16:20:00",313791,0.449,282.5,3.486,68.62,12.19591,0,868.5098,0,-27.21,3.432,185,7.556,8.03,1.455681,0.119,51.6,58.79,33.69,35.4
"2017-11-09 16:30:00",313792,0.792,250.9,3.166,72.6,8.370434,0,868.5098,0,11.91,3.044,256,7.484,8.03,1.144832,0.138,51.55,58.85,33.68,35.41
"2017-11-09 16:40:00",313793,0.951,280.2,2.963,74.47,4.238402,0,868.5098,0,-27.47,3.436,197,7.445,8.04,0.7278608,0.176,51.55,58.79,33.68,35.4
"2017-11-09 16:50:00",313794,0.849,264,2.769,75.56,0.3617436,0,868.5098,0,-29.07,3.454,225,7.491,8.07,0.2085176,0.175,51.55,58.85,33.68,35.41
"2017-11-09 17:00:00",313795,0.44,221.2,2.562,76.86,0,0,868.5456,0,-27.57,3.44,209,7.562,8.09,0,0,51.55,58.85,33.68,35.41
"2017-11-09 17:10:00",313796,0.463,257.3,2.372,77.98,0,0,868.7601,0,5.567,3.111,250,7.59,8.11,0,0,51.55,58.85,33.68,35.41
"2017-11-09 17:20:00",313797,0.41,209.5,2.274,76.64,0,0,868.796,0,-27.16,3.439,191,7.6,8.12,0,0,51.49,58.85,33.66,35.41
"2017-11-09 17:30:00",313798,0.39,224.3,1.952,78.41,0,0,868.8617,0,-26.86,3.436,185,7.576,8.12,0.02654483,0,51.55,58.85,33.68,35.41
"2017-11-09 17:40:00",313799,0.536,276.5,1.989,77.31,0,0,868.9737,0,-26.91,3.437,196,7.554,8.12,0.01896061,0,51.55,58.79,33.68,35.4
"2017-11-09 17:50:00",313800,0.488,256.9,1.914,77.87,0,0,869.106,0,12.33,3.047,284,7.531,8.13,0,0,51.55,58.79,33.68,35.4
"2017-11-09 18:00:00",313801,0.4,235,1.767,78.61,0,0,869.1137,0,12.17,3.049,271,7.518,8.13,0.06067409,0,51.49,58.85,33.66,35.41
"2017-11-09 18:10:00",313802,0.206,238.3,1.533,79.6,0,0,869.2448,0,12.42,3.048,275,7.518,8.13,0,0,51.55,58.85,33.68,35.41
"2017-11-09 18:20:00",313803,0.363,176.1,1.228,80.5,0,0,869.3607,0,11.87,3.054,281,7.504,8.16,0.02654491,0,51.55,58.85,33.68,35.41
"2017-11-09 18:30:00",313804,0.271,205.6,0.943,81.9,0,0,869.3839,0,-27.06,3.445,251,7.435,8.17,0.01137639,0,51.55,58.85,33.68,35.41
"2017-11-09 18:40:00",313805,0.245,214.4,0.935,81.7,0,0,869.5673,0,-26.91,3.443,211,7.432,8.18,0.07205047,0,51.49,58.85,33.66,35.41
"2017-11-09 18:50:00",313806,0.57,194.8,0.97,81.5,0,0,869.5862,0,-27.21,3.446,189,7.432,8.17,0.261657,0,51.55,58.85,33.68,35.41
"2017-11-09 19:00:00",313807,0.409,200.7,0.867,82.9,0,0,869.6094,0,-27.16,3.445,195,7.447,8.17,0.2275278,0,51.55,58.85,33.68,35.41
"2017-11-09 19:10:00",313808,0.197,206.4,0.618,83.9,0,0,869.6158,0,-27.79,3.454,193,7.451,8.16,0.0758426,0,51.49,58.85,33.66,35.41
"2017-11-09 19:20:00",313809,0.646,251.8,0.638,85.1,0,0,869.8181,0,-26.66,3.441,193,7.352,8.14,0.2578649,0,51.49,58.85,33.66,35.41
"2017-11-09 19:30:00",313810,0.385,183.2,0.548,85.5,0,0,869.8665,0,12.55,3.053,366,7.345,8.14,0.09480325,0,51.49,58.85,33.66,35.41
"2017-11-09 19:40:00",313811,0.708,198.3,0.453,87.7,0,0,869.8244,0,-26.34,3.44,185,7.342,8.14,0.174438,0,51.49,58.85,33.66,35.41
"2017-11-09 19:50:00",313812,0.422,220,0.54,88,0,0,869.8623,0,-26.98,3.447,187,7.31,8.14,0.261657,0,51.49,58.85,33.66,35.41
"2017-11-09 20:00:00",313813,0.131,192,0.38,88.7,0,0,869.8665,0,-26.93,3.448,188,7.334,8.15,0.087219,0,51.49,58.85,33.66,35.41
"2017-11-09 20:10:00",313814,0.234,177.6,0.318,89.6,0,0,869.9825,0,-27.58,3.455,192,7.28,8.15,0.204785,0,51.55,58.85,33.68,35.41
"2017-11-09 20:20:00",313815,0.361,272.6,0.18,90.6,0,0,870.0057,0,-27.19,3.449,184,7.274,8.15,0.1668637,0,51.55,58.85,33.68,35.41
"2017-11-09 20:30:00",313816,0.224,211.2,0.315,89.6,0,0,870.0605,0,-27.65,3.456,195,7.283,8.14,0.3337274,0,51.55,58.85,33.68,35.41
"2017-11-09 20:40:00",313817,0.253,189.4,0.102,91.2,0,0,869.9171,0,-27.93,3.458,194,7.31,8.13,0.1516912,0,51.55,58.85,33.68,35.41
"2017-11-09 20:50:00",313818,0.123,187.5,0.145,90.8,0,0,869.9256,0,-28.26,3.463,192,7.337,8.12,0.1706524,0,51.49,58.85,33.66,35.41
"2017-11-09 21:00:00",313819,0.339,129.3,-0.289,91.9,0,0,869.9614,0,12.12,3.062,214,7.216,8.1,0,0,51.49,58.85,33.66,35.41
"2017-11-09 21:10:00",313820,0.142,172.6,-0.572,93.7,0,0,870.0331,0,12.47,3.059,296,7.205,8.08,0,0,51.49,58.85,33.66,35.41
"2017-11-09 21:20:00",313821,0.188,185.9,-0.674,94.3,0,0,870.1194,0,5.464,3.13,253,7.243,8.08,0.06826425,0,51.49,58.85,33.66,35.41
"2017-11-09 21:30:00",313822,0.077,177.9,-0.827,94.2,0,0,870.1005,0,3.937,3.146,228,7.203,8.08,0.2010128,0,51.55,58.85,33.68,35.41
"2017-11-09 21:40:00",313823,0.029,177.8,-0.898,94.6,0,0,870.0724,0,3.728,3.147,234,7.141,8.13,0.3679157,0,51.55,58.85,33.68,35.41
"2017-11-09 21:50:00",313824,0,0,-0.95,94.5,0,0,870.0954,0,3.593,3.15,242,7.183,8.18,0.4855262,0,51.55,58.85,33.68,35.41
"2017-11-09 22:00:00",313825,0.329,171.8,-1.205,94.8,0,0,870.0305,0,3.564,3.153,243,7.19,8.21,0.3793324,0,51.49,58.85,33.66,35.41
"2017-11-09 22:10:00",313826,0.126,193,-1.375,96,0,0,870.1454,0,3.588,3.151,232,7.173,8.2,0.4931422,0,51.49,58.85,33.66,35.41
"2017-11-09 22:20:00",313827,0.079,190.9,-1.246,95.8,0,0,870.0603,0,5.532,3.133,246,7.14,8.14,0.5614258,0,51.49,58.85,33.66,35.41
"2017-11-09 22:30:00",313828,0.113,190.9,-1.536,96,0,0,869.9524,0,6.63,3.121,269,7.123,8.13,0.3603754,0,51.55,58.85,33.68,35.41
"2017-11-09 22:40:00",313829,0.083,191,-1.096,96.8,0,0,869.9498,0,8.53,3.101,291,7.091,8.13,1.103887,0,51.49,58.85,33.66,35.41
"2017-11-09 22:50:00",313830,0.012,190.9,-1.443,95.4,0,0,869.9001,0,8.82,3.101,288,7.089,8.13,0.6410891,0,51.49,58.85,33.66,35.41
"2017-11-09 23:00:00",313831,0.291,187,-1.836,95.8,0,0,869.7907,0,9.49,3.096,263,7.042,8.13,0.3034741,0,51.49,58.85,33.66,35.41
"2017-11-09 23:10:00",313832,0.139,187.1,-1.631,96.8,0,0,869.7106,0,9.77,3.09,266,7.024,8.15,1.08492,0,51.49,58.85,33.66,35.41
"2017-11-09 23:20:00",313833,0.115,186.8,-1.473,95.7,0,0,869.7064,0,9.59,3.095,243,7.064,8.17,1.270798,0,51.49,58.85,33.66,35.41
"2017-11-09 23:30:00",313834,0.198,187.4,-1.838,95.8,0,0,869.679,0,9.92,3.091,245,7.019,8.17,1.06216,0,51.55,58.85,33.68,35.41
"2017-11-09 23:40:00",313835,0.177,187.8,-1.752,95.7,0,0,869.5735,0,9.54,3.095,234,7.011,8.13,1.130441,0,51.49,58.85,33.66,35.41
"2017-11-09 23:50:00",313836,0.083,181.4,-1.984,95.5,0,0,869.4554,0,9.64,3.093,226,6.97,8.12,0.9407699,0,51.55,58.85,33.68,35.41
